User: anonymous   Login
Location: Thompson
(55.7500°N, 97.8670°W)
Time: 22:18:27
(UTC-05:00)
Language:

Cosmos 1833 Rocket - Orbit

View from above orbital plane
View from above orbital plane
View from above satellite
View from above satellite

Ground track
Ground track

The orbit data is extracted from the following two-line orbital elements,

1 17590U 87027B   16271.61873987 -.00000147  00000-0 -49458-4 0  9990
2 17590  71.0049 342.8731 0006193 322.4742  37.5949 14.16730156526932
Epoch (UTC): 27 September 2016 14:50:59
Eccentricity: 0.0006193
inclination: 71.0049°
perigee height: 832 km
apogee height: 841 km
right ascension of ascending node: 342.8731°
argument of perigee: 322.4742°
revolutions per day: 14.16730156
mean anomaly at epoch: 37.5949°
orbit number at epoch: 52693

The dashed part of the orbit path shows where the satellite is in the earth's shadow,  

DLR